This is the latest recevied weather packets stored in our database for station/object WE8L. If no packets are shown the sender has not sent any weather packets the latest 10 day(s).
| Time | Temp. | Humidity | Pressure | Rain* | Wind** | Luminosity | Snow |
|---|---|---|---|---|---|---|---|
| 1777933577 | 23.89° C | 50% | 1008.4 hPa | 0 mm | - | 44 W/m² | - |
| 1777933274 | 23.89° C | 51% | 1008.6 hPa | 0 mm | - | 38 W/m² | - |
| 1777932971 | 23.89° C | 51% | 1008.8 hPa | 0 mm | - | 46 W/m² | - |
| 1777932668 | 23.89° C | 51% | 1008.5 hPa | 0 mm | - | 53 W/m² | - |
| 1777932364 | 23.33° C | 49% | 1008.8 hPa | 0 mm | - | 59 W/m² | - |
| 1777932062 | 23.33° C | 50% | 1008.7 hPa | 0 mm | - | 58 W/m² | - |
| 1777931758 | 23.33° C | 49% | 1008.6 hPa | 0 mm | - | 62 W/m² | - |
| 1777931456 | 23.33° C | 49% | 1008.5 hPa | 0 mm | - | 57 W/m² | - |
| 1777931151 | 23.33° C | 49% | 1008.5 hPa | 0 mm | - | 50 W/m² | - |
| 1777930848 | 23.33° C | 47% | 1009.1 hPa | 0 mm | - | 62 W/m² | - |
| 1777930544 | 23.33° C | 48% | 1009.2 hPa | 0 mm | - | 56 W/m² | - |
| 1777930242 | 23.33° C | 47% | 1009.3 hPa | 0 mm | - | 69 W/m² | - |
| 1777929937 | 23.89° C | 47% | 1009.3 hPa | 0 mm | - | 82 W/m² | - |
| 1777929635 | 23.89° C | 46% | 1009.4 hPa | 0 mm | - | 70 W/m² | - |
| 1777929332 | 23.89° C | 47% | 1009.4 hPa | 0 mm | - | 73 W/m² | - |
| 1777929029 | 23.89° C | 48% | 1009.3 hPa | 0 mm | - | 77 W/m² | - |
| 1777928726 | 23.89° C | 50% | 1009.3 hPa | 0 mm | - | 83 W/m² | - |
| 1777928422 | 23.89° C | 49% | 1009.6 hPa | 0 mm | - | 93 W/m² | - |
| 1777928120 | 23.89° C | 49% | 1009.8 hPa | 0 mm | - | 94 W/m² | - |
| 1777927818 | 23.33° C | 50% | 1009.8 hPa | 0 mm | - | 107 W/m² | - |
| 1777927516 | 23.89° C | 49% | 1009.8 hPa | 0 mm | - | 102 W/m² | - |
| 1777927215 | 23.33° C | 51% | 1009.8 hPa | 0 mm | - | 114 W/m² | - |
| 1777926913 | 23.33° C | 50% | 1009.7 hPa | 0 mm | - | 94 W/m² | - |
| 1777926610 | 23.33° C | 50% | 1009.9 hPa | 0 mm | - | 103 W/m² | - |
| 1777926305 | 23.33° C | 50% | 1010.1 hPa | 0 mm | - | 107 W/m² | - |
* Rain latest hour (hover to see other rain measurements)
** Current wind speed in m/s (hover to see current wind gust speed)